Jordan, MT

9:24 PM MDT on July 20, 2017 (GMT -0600)
Jordan

Weather History for KJDN - October, 2011

Change the Weather History Date:

Thursday, October 27, 2011

  Actual Average Record
Temperature  
Mean Temperature 38 °F 40 °F  
Max Temperature 52 °F 54 °F 80 °F (1944)
Min Temperature 24 °F 25 °F 2 °F (1919)
Degree Days  
Heating Degree Days 27 25  
Month to date heating degree days 409 541  
Since 1 July heating degree days 581 867  
Cooling Degree Days 0 0  
Month to date cooling degree days 12 0  
Year to date cooling degree days 494 420  
Moisture  
Dew Point 22 °F    
Average Humidity 58    
Maximum Humidity 88    
Minimum Humidity 28    
Precipitation  
Precipitation 0.00 in 0.03 in 0.35 in (1940)
Month to date precipitation 1.23 0.80  
Year to date precipitation 15.93 11.93  
Snow  
Snow 0.00 in - - ()
Month to date snowfall 0.0  
Since 1 July snowfall 0.0  
Since 1 September snowfall 0.0  
Snow Depth 0.00 in    
Sea Level Pressure  
Sea Level Pressure 30.05 in    
Wind  
Wind Speed 7 mph (WNW)    
Max Wind Speed 20 mph    
Max Gust Speed 24 mph    
T = Trace of Precipitation, MM = Missing Value Source: NWS Daily Summary

Daily Weather History Graph

Daily Weather History Graph

Search for Another Location

Airport or City:

Trip Planner

Search our weather history database for the weather conditions in past years. The results will help you decide how hot, cold, wet, or windy it might be!

Date:

Astronomy

Oct. 27, 2011 Rise Set
Actual Time 7:43 AM MDT 5:59 PM MDT
Civil Twilight 7:11 AM MDT 6:30 PM MDT
Nautical Twilight 6:35 AM MDT 7:06 PM MDT
Astronomical Twilight 6:00 AM MDT 7:41 PM MDT
Moon 8:58 AM MDT (10/27) 6:20 PM MDT (10/27)
Length of Visible Light 11h 18m
Length of Day
10h 15m
New Moon, 1% of the Moon is Illuminated
Oct 27
New Moon
Nov 2
First Quarter
Nov 10
Full
Nov 18
Last Quarter
Nov 24
New

Hourly Weather History & Observations

Time (MDT) Temp. Windchill Dew Point Humidity Pressure Visibility Wind Dir Wind Speed Gust Speed Precip Events Conditions
12:48 AM 30.9 °F - 25.0 °F 79% 30.01 in - Calm Calm - N/A   Unknown
1:48 AM 36.0 °F 33.3 °F 25.0 °F 64% 29.99 in - WNW 3.5 mph - N/A   Unknown
2:48 AM 36.0 °F 31.1 °F 24.1 °F 62% 29.99 in - WNW 5.8 mph - N/A   Unknown
3:48 AM 37.9 °F 33.5 °F 24.1 °F 57% 29.98 in - West 5.8 mph - N/A   Unknown
4:48 AM 37.0 °F 31.0 °F 23.0 °F 57% 29.98 in - West 8.1 mph - N/A   Unknown
5:48 AM 34.0 °F 28.0 °F 23.0 °F 64% 30.01 in - West 6.9 mph - N/A   Unknown
6:48 AM 30.0 °F 25.2 °F 21.9 °F 72% 30.04 in - WSW 4.6 mph - N/A   Unknown
7:48 AM 28.0 °F 22.8 °F 21.0 °F 75% 30.06 in - WNW 4.6 mph - N/A   Unknown
8:48 AM 34.0 °F 28.8 °F 23.0 °F 64% 30.07 in - West 5.8 mph - N/A   Unknown
9:48 AM 43.0 °F 36.4 °F 24.1 °F 47% 30.07 in - WNW 12.7 mph - N/A   Unknown
10:48 AM 46.0 °F 39.0 °F 21.9 °F 39% 30.08 in - NW 17.3 mph 21.9 mph N/A   Unknown
12:24 PM 48.2 °F - 21.2 °F 34% 30.02 in - NW 17.3 mph - N/A   Unknown
12:48 PM 48.9 °F - 21.9 °F 35% 30.01 in - NW 13.8 mph 21.9 mph N/A   Unknown
1:48 PM 50.0 °F - 19.9 °F 31% 30.00 in - WNW 12.7 mph 23.0 mph N/A   Unknown
2:48 PM 51.1 °F - 19.9 °F 29% 30.01 in - WNW 12.7 mph 21.9 mph N/A   Unknown
3:48 PM 46.9 °F - 19.9 °F 34% 30.03 in - NW 11.5 mph - N/A   Unknown
4:48 PM 48.9 °F - 17.1 °F 28% 30.04 in - WNW 13.8 mph - N/A   Unknown
5:48 PM 41.0 °F 38.0 °F 19.9 °F 43% 30.06 in - NW 4.6 mph - N/A   Unknown
6:48 PM 33.1 °F 30.0 °F 19.9 °F 59% 30.08 in - WNW 3.5 mph - N/A   Unknown
7:48 PM 28.9 °F - 19.9 °F 69% 30.09 in - Calm Calm - N/A   Unknown
8:48 PM 26.1 °F 21.9 °F 19.9 °F 78% 30.09 in - West 3.5 mph - N/A   Unknown
9:48 PM 28.9 °F 22.8 °F 19.9 °F 69% 30.11 in - West 5.8 mph - N/A   Unknown
10:48 PM 25.0 °F 20.7 °F 21.0 °F 85% 30.12 in - West 3.5 mph - N/A   Unknown
11:48 PM 26.1 °F 20.5 °F 19.9 °F 78% 30.14 in - WNW 4.6 mph - N/A   Unknown